Date String (YYYY-MM-DD hh:mm:ss) UTC,Instrument flags,Ambient pressure (hPa),Sample flow (lpm),Bypass flow (lpm),Sample temperature (°C),Ambient temperature (°C),ASC tube jacket temperature (°C),LED temperature (°C),Box temperature (°C),Sample RH (%),Span deviation,Mass concentration (μg/m³),Mass concentration (μg/m³),Mass concentration (μg/m³)
DateTimeUTC,F1_M11,P_M11,Q1_M11,Q2_M11,T1_M11,T2_M11,T3_M11,T4_M11,T5_M11,U1_M11,ZSPAN_M11,X0_M11,X2_M11,X1_M11
2022-11-06 07:00:00,,0816.0,5.00,0.00,24.4,22.8,00.0,33.2,26.2,15.7,0000.0,0000.64,0000.28,0000.22
2022-11-06 07:01:00,,0816.0,5.00,0.00,24.3,22.8,00.0,33.2,26.2,15.7,0000.0,0000.65,0000.30,0000.22
2022-11-06 07:02:00,,0816.0,5.00,0.00,24.4,22.8,00.0,33.2,26.2,15.7,0000.0,0000.64,0000.30,0000.22
2022-11-06 07:03:00,,0816.0,5.01,0.00,24.3,22.8,00.0,33.2,26.2,15.8,0000.0,0000.64,0000.29,0000.22
2022-11-06 07:04:00,,0816.1,5.01,0.00,24.3,22.8,00.0,33.2,26.2,15.7,0000.0,0000.67,0000.30,0000.21
2022-11-06 07:05:00,,0816.1,5.00,0.00,24.3,22.8,00.0,33.2,26.2,15.8,0000.0,0000.70,0000.30,0000.21
2022-11-06 07:06:00,,0816.1,4.98,0.00,24.3,22.8,00.0,33.2,26.2,15.8,0000.0,0000.47,0000.28,0000.21
2022-11-06 07:07:00,,0816.0,5.00,0.00,24.3,22.8,00.0,33.2,26.2,15.8,0000.0,0000.45,0000.28,0000.21
2022-11-06 07:08:00,,0816.1,5.00,0.00,24.3,22.8,00.0,33.2,26.2,15.9,0000.0,0000.46,0000.29,0000.20
2022-11-06 07:09:00,,0816.1,5.00,0.00,24.3,22.8,00.0,33.2,26.2,15.8,0000.0,0000.46,0000.29,0000.20
2022-11-06 07:10:00,,0816.1,5.00,0.00,24.3,22.8,00.0,33.2,26.2,15.8,0000.0,0000.45,0000.28,0000.19
2022-11-06 07:11:00,,0816.1,5.00,0.00,24.3,22.8,00.0,33.2,26.2,15.9,0000.0,0000.49,0000.30,0000.19
2022-11-06 07:12:00,,0816.0,5.00,0.00,24.3,22.8,00.0,33.2,26.1,16.1,0000.0,0000.49,0000.30,0000.19
2022-11-06 07:13:00,,0816.0,5.00,0.00,24.3,22.8,00.0,33.2,26.1,16.2,0000.0,0000.48,0000.30,0000.19
2022-11-06 07:14:00,,0816.0,5.00,0.00,24.3,22.8,00.0,33.2,26.1,16.4,0000.0,0000.51,0000.30,0000.19
2022-11-06 07:15:00,,0816.1,5.01,0.00,24.3,22.8,00.0,33.2,26.1,16.5,0000.0,0000.48,0000.30,0000.19
2022-11-06 07:16:00,,0816.1,4.99,0.00,24.3,22.8,00.0,33.2,26.2,16.7,0000.0,0000.48,0000.30,0000.19
2022-11-06 07:17:00,,0816.1,4.99,0.00,24.3,22.8,00.0,33.2,26.1,16.9,0000.0,0000.53,0000.32,0000.19
2022-11-06 07:18:00,,0816.1,5.00,0.00,24.3,22.7,00.0,33.2,26.1,17.1,0000.0,0000.64,0000.35,0000.20
2022-11-06 07:19:00,,0816.0,5.00,0.00,24.3,22.7,00.0,33.1,26.1,17.2,0000.0,0000.76,0000.36,0000.20
2022-11-06 07:20:00,,0816.0,5.01,0.00,24.3,22.7,00.0,33.1,26.1,17.3,0000.0,0000.81,0000.37,0000.21
2022-11-06 07:21:00,,0816.1,5.01,0.00,24.3,22.7,00.0,33.1,26.1,17.3,0000.0,0000.85,0000.39,0000.21
2022-11-06 07:22:00,,0816.0,4.99,0.00,24.2,22.7,00.0,33.1,26.0,17.4,0000.0,0000.84,0000.38,0000.20
2022-11-06 07:23:00,,0816.0,5.00,0.00,24.2,22.7,00.0,33.1,26.1,17.4,0000.0,0000.85,0000.38,0000.20
2022-11-06 07:24:00,,0816.0,5.00,0.00,24.2,22.7,00.0,33.1,26.1,17.3,0000.0,0000.87,0000.40,0000.21
2022-11-06 07:25:00,,0816.0,5.01,0.00,24.2,22.7,00.0,33.1,26.0,17.4,0000.0,0000.97,0000.42,0000.21
2022-11-06 07:26:00,,0815.9,5.00,0.00,24.2,22.7,00.0,33.1,26.0,17.5,0000.0,0001.03,0000.42,0000.20
2022-11-06 07:27:00,,0815.9,5.00,0.00,24.2,22.6,00.0,33.1,26.1,17.6,0000.0,0001.06,0000.43,0000.21
2022-11-06 07:28:00,,0815.9,5.00,0.00,24.2,22.6,00.0,33.1,26.1,17.5,0000.0,0001.04,0000.42,0000.21
2022-11-06 07:29:00,,0816.0,5.00,0.00,24.2,22.6,00.0,33.1,26.0,17.5,0000.0,0000.93,0000.39,0000.21
2022-11-06 07:30:00,,0816.1,5.01,0.00,24.2,22.6,00.0,33.1,26.0,17.5,0000.0,0000.76,0000.37,0000.20
2022-11-06 07:31:00,,0816.0,5.01,0.00,24.2,22.6,00.0,33.1,26.0,17.5,0000.0,0000.86,0000.39,0000.20
2022-11-06 07:32:00,,0816.0,4.99,0.00,24.2,22.5,00.0,33.1,25.9,17.5,0000.0,0000.90,0000.42,0000.20
2022-11-06 07:33:00,,0815.9,4.99,0.00,24.2,22.5,00.0,33.1,26.0,17.5,0000.0,0001.06,0000.44,0000.21
2022-11-06 07:34:00,,0816.0,5.00,0.00,24.2,22.5,00.0,33.1,26.0,17.5,0000.0,0001.10,0000.43,0000.22
2022-11-06 07:35:00,,0816.0,5.01,0.00,24.2,22.6,00.0,33.1,26.0,17.4,0000.0,0001.12,0000.42,0000.22
2022-11-06 07:36:00,,0816.1,5.00,0.00,24.2,22.6,00.0,33.1,26.0,17.4,0000.0,0001.74,0000.41,0000.22
2022-11-06 07:37:00,,0816.1,4.99,0.00,24.2,22.6,00.0,33.1,26.0,17.4,0000.0,0001.86,0000.41,0000.22
2022-11-06 07:38:00,,0816.2,4.99,0.00,24.1,22.6,00.0,33.0,26.0,17.5,0000.0,0001.84,0000.40,0000.22
2022-11-06 07:39:00,,0816.1,5.01,0.00,24.1,22.6,00.0,33.0,26.0,17.5,0000.0,0001.93,0000.42,0000.22
2022-11-06 07:40:00,,0816.2,5.01,0.00,24.1,22.6,00.0,33.0,26.0,17.5,0000.0,0002.01,0000.45,0000.23
2022-11-06 07:41:00,,0816.2,4.98,0.00,24.1,22.6,00.0,33.0,25.9,17.6,0000.0,0002.00,0000.45,0000.23
2022-11-06 07:42:00,,0816.1,5.00,0.00,24.1,22.5,00.0,33.0,25.9,17.6,0000.0,0001.95,0000.41,0000.23
2022-11-06 07:43:00,,0816.1,5.00,0.00,24.1,22.5,00.0,33.0,25.9,17.5,0000.0,0002.18,0000.37,0000.23
2022-11-06 07:44:00,,0816.1,5.00,0.00,24.1,22.5,00.0,33.0,25.9,17.5,0000.0,0002.33,0000.35,0000.22
2022-11-06 07:45:00,,0816.0,5.01,0.00,24.1,22.5,00.0,33.0,25.9,17.3,0000.0,0002.57,0000.36,0000.22
2022-11-06 07:46:00,,0816.0,5.01,0.00,24.1,22.5,00.0,33.0,25.9,17.3,0000.0,0003.55,0000.36,0000.22
2022-11-06 07:47:00,,0816.0,5.01,0.00,24.1,22.5,00.0,33.0,25.9,17.3,0000.0,0003.12,0000.36,0000.21
2022-11-06 07:48:00,,0816.1,5.00,0.00,24.1,22.5,00.0,33.0,25.9,17.3,0000.0,0003.07,0000.37,0000.21
2022-11-06 07:49:00,,0816.2,4.99,0.00,24.1,22.5,00.0,33.0,25.9,17.3,0000.0,0003.15,0000.38,0000.20
2022-11-06 07:50:00,,0816.3,5.00,0.00,24.1,22.5,00.0,32.9,25.9,17.4,0000.0,0003.02,0000.35,0000.20
2022-11-06 07:51:00,,0816.2,5.00,0.00,24.1,22.5,00.0,32.9,25.9,17.3,0000.0,0002.96,0000.32,0000.19
2022-11-06 07:52:00,,0816.1,5.00,0.00,24.0,22.5,00.0,33.0,25.9,17.3,0000.0,0002.96,0000.32,0000.19
2022-11-06 07:53:00,,0816.1,5.00,0.00,24.0,22.4,00.0,32.9,25.9,17.1,0000.0,0002.94,0000.33,0000.19
2022-11-06 07:54:00,,0816.1,5.00,0.00,24.0,22.4,00.0,32.9,25.8,17.1,0000.0,0002.61,0000.34,0000.19
2022-11-06 07:55:00,,0816.1,4.99,0.00,24.0,22.4,00.0,32.9,25.8,17.1,0000.0,0002.31,0000.33,0000.19
2022-11-06 07:56:00,,0816.1,5.01,0.00,24.0,22.4,00.0,32.9,25.8,17.2,0000.0,0001.97,0000.31,0000.18
2022-11-06 07:57:00,,0816.2,5.00,0.00,24.0,22.4,00.0,32.9,25.8,17.1,0000.0,0001.08,0000.31,0000.18
2022-11-06 07:58:00,,0816.2,4.99,0.00,24.0,22.4,00.0,32.9,25.8,17.1,0000.0,0000.65,0000.31,0000.18
2022-11-06 07:59:00,,0816.3,5.01,0.00,24.0,22.4,00.0,32.9,25.7,17.0,0000.0,0001.18,0000.28,0000.18
